{"data":{"norad_id":60240,"epoch":"2026-09-19T12:43:15.468096Z","epoch_age_seconds":98238,"freshness":"FRESH","line1":"1 60240U 24128F   26262.53004014  .00001131  00000+0  98208-4 0  9990","line2":"2 60240  61.9927 256.5162 0031252 155.7400 204.5171 15.03107778120293","mean_motion":15.03107778,"eccentricity":0.0031252,"inclination_deg":61.9927,"raan_deg":256.5162,"arg_perigee_deg":155.74,"mean_anomaly_deg":204.5171,"bstar":9.8208e-5,"rev_number":12029,"period_min":95.801513442771,"perigee_km":535.64546593358,"apogee_km":578.99484734544,"semimajor_km":6935.4571566395,"source":"CELESTRAK","updated_at":"2026-09-20T09:00:48.039383Z"}}